• In Romania
  • List of Countries
  • For 7 days
  • Water Temperature
  • Satellite Maps
  • Weather Map
  • Weather Widgets
  • user-avatar
    Login

    Hourly Weather Barinas

    Today, 20 September, Thursday

    Time Temperature Precipitation Wind Pressure Humidity
    00:00 +26°C° 0.4 mm 1 mps 742 mmHg 67%
    01:00 +25°C° 0 mm 1 mps 742 mmHg 63%
    02:00 +25°C° 0 mm 1 mps 742 mmHg 63%
    03:00 +25°C° 0 mm 1 mps 742 mmHg 62%
    04:00 +25°C° 0 mm 1 mps 742 mmHg 61%
    05:00 +26°C° 0 mm 1 mps 742 mmHg 59%
    06:00 +27°C° 0 mm 1 mps 743 mmHg 58%
    07:00 +28°C° 0 mm 1 mps 743 mmHg 54%
    08:00 +30°C° 0 mm 1 mps 743 mmHg 52%
    09:00 +32°C° 0 mm 1 mps 743 mmHg 49%
    10:00 +34°C° 0 mm 1 mps 743 mmHg 46%
    11:00 +35°C° 0.1 mm 2 mps 743 mmHg 48%
    12:00 +36°C° 0.1 mm 2 mps 742 mmHg 49%
    13:00 +36°C° 0.1 mm 2 mps 742 mmHg 50%
    14:00 +35°C° 0.2 mm 2 mps 741 mmHg 57%
    15:00 +32°C° 0.2 mm 2 mps 741 mmHg 64%
    16:00 +31°C° 0.2 mm 2 mps 741 mmHg 72%
    17:00 +30°C° 0.1 mm 1 mps 741 mmHg 76%
    18:00 +29°C° 0.1 mm 1 mps 741 mmHg 80%
    19:00 +27°C° 0.1 mm 1 mps 741 mmHg 84%
    20:00 +27°C° 0.1 mm 1 mps 742 mmHg 83%
    21:00 +27°C° 0.1 mm 1 mps 742 mmHg 82%
    22:00 +27°C° 0.1 mm 1 mps 743 mmHg 81%
    23:00 +26°C° 0 mm 1 mps 743 mmHg 77%

    Tomorrow, 21 September, Friday

    Time Temperature Precipitation Wind Pressure Humidity
    00:00 +26°C° 0 mm 1 mps 742 mmHg 72%
    01:00 +26°C° 0 mm 1 mps 742 mmHg 68%
    02:00 +26°C° 0 mm 1 mps 742 mmHg 67%
    03:00 +26°C° 0 mm 1 mps 742 mmHg 65%
    04:00 +25°C° 0 mm 1 mps 742 mmHg 64%
    05:00 +26°C° 0.1 mm 1 mps 742 mmHg 65%
    06:00 +27°C° 0.1 mm 1 mps 743 mmHg 67%
    07:00 +27°C° 0.1 mm 1 mps 743 mmHg 69%
    08:00 +29°C° 0.1 mm 2 mps 743 mmHg 66%
    09:00 +31°C° 0.1 mm 2 mps 743 mmHg 63%
    10:00 +32°C° 0.1 mm 2 mps 743 mmHg 60%
    11:00 +34°C° 0.2 mm 2 mps 742 mmHg 59%
    12:00 +34°C° 0.2 mm 2 mps 742 mmHg 58%
    13:00 +35°C° 0.2 mm 2 mps 741 mmHg 57%
    14:00 +35°C° 0.1 mm 2 mps 740 mmHg 60%
    15:00 +34°C° 0.1 mm 2 mps 740 mmHg 63%
    16:00 +34°C° 0.1 mm 2 mps 739 mmHg 66%
    17:00 +31°C° 0.4 mm 1 mps 740 mmHg 73%
    18:00 +29°C° 0.4 mm 1 mps 740 mmHg 79%
    19:00 +28°C° 0.4 mm 1 mps 741 mmHg 86%
    20:00 +27°C° 0.6 mm 1 mps 741 mmHg 87%
    21:00 +27°C° 0.6 mm 1 mps 742 mmHg 88%
    22:00 +27°C° 0.6 mm 1 mps 742 mmHg 89%
    23:00 +26°C° 1.9 mm 1 mps 742 mmHg 88%

    Day after tomorrow, 22 September, Saturday

    Time Temperature Precipitation Wind Pressure Humidity
    00:00 +26°C° 1.9 mm 1 mps 742 mmHg 88%
    01:00 +26°C° 1.9 mm 1 mps 741 mmHg 87%
    02:00 +26°C° 0.6 mm 1 mps 741 mmHg 85%
    03:00 +26°C° 0.6 mm 1 mps 741 mmHg 83%
    04:00 +25°C° 0.6 mm 1 mps 741 mmHg 81%
    05:00 +26°C° 0.1 mm 1 mps 742 mmHg 80%
    06:00 +26°C° 0.1 mm 1 mps 742 mmHg 78%
    07:00 +27°C° 0.1 mm 1 mps 742 mmHg 76%
    08:00 +28°C° 0.1 mm 1 mps 743 mmHg 72%
    09:00 +29°C° 0.1 mm 1 mps 743 mmHg 67%
    10:00 +31°C° 0.1 mm 1 mps 743 mmHg 63%
    11:00 +31°C° 0.1 mm 1 mps 742 mmHg 62%
    12:00 +32°C° 0.1 mm 1 mps 742 mmHg 61%
    13:00 +32°C° 0.1 mm 1 mps 741 mmHg 60%
    14:00 +32°C° 0.1 mm 1 mps 740 mmHg 65%
    15:00 +31°C° 0.1 mm 1 mps 740 mmHg 69%
    16:00 +30°C° 0.1 mm 1 mps 739 mmHg 74%
    17:00 +29°C° 0.3 mm 1 mps 740 mmHg 79%
    18:00 +28°C° 0.3 mm 1 mps 740 mmHg 84%
    19:00 +27°C° 0.3 mm 1 mps 741 mmHg 89%
    20:00 +27°C° 0.6 mm 1 mps 741 mmHg 89%
    21:00 +26°C° 0.6 mm 1 mps 741 mmHg 89%
    22:00 +26°C° 0.6 mm 1 mps 742 mmHg 88%
    23:00 +26°C° 0.9 mm 1 mps 742 mmHg 87%

    23 September, Sunday

    Time Temperature Precipitation Wind Pressure Humidity
    00:00 +26°C° 0.9 mm 1 mps 741 mmHg 87%
    01:00 +25°C° 0.9 mm 1 mps 741 mmHg 86%
    02:00 +25°C° 0.4 mm 1 mps 741 mmHg 84%
    03:00 +25°C° 0.4 mm 1 mps 741 mmHg 83%
    04:00 +25°C° 0.4 mm 1 mps 741 mmHg 81%
    05:00 +26°C° 0.2 mm 1 mps 741 mmHg 79%
    06:00 +26°C° 0.2 mm 1 mps 742 mmHg 76%
    07:00 +27°C° 0.2 mm 1 mps 742 mmHg 74%
    08:00 +28°C° 0.3 mm 1 mps 743 mmHg 70%
    09:00 +30°C° 0.3 mm 1 mps 743 mmHg 65%
    10:00 +31°C° 0.3 mm 1 mps 743 mmHg 61%
    11:00 +32°C° 0.2 mm 1 mps 742 mmHg 59%
    12:00 +34°C° 0.2 mm 2 mps 741 mmHg 57%
    13:00 +35°C° 0.2 mm 2 mps 740 mmHg 54%
    14:00 +34°C° 0.5 mm 2 mps 740 mmHg 59%
    15:00 +32°C° 0.5 mm 2 mps 740 mmHg 64%
    16:00 +31°C° 0.5 mm 2 mps 740 mmHg 68%
    17:00 +30°C° 1 mm 1 mps 740 mmHg 74%
    18:00 +28°C° 1 mm 1 mps 741 mmHg 80%
    19:00 +25°C° 1 mm 0 mps 741 mmHg 86%
    20:00 +25°C° 1.2 mm 0 mps 742 mmHg 86%
    21:00 +24°C° 1.2 mm 0 mps 742 mmHg 86%
    22:00 +24°C° 1.2 mm 0 mps 743 mmHg 86%
    23:00 +26°C° 1.3 mm 1 mps 743 mmHg 86%

    24 September, Monday

    Time Temperature Precipitation Wind Pressure Humidity
    00:00 +26°C° 1.3 mm 1 mps 742 mmHg 85%
    01:00 +25°C° 1.3 mm 1 mps 742 mmHg 85%
    02:00 +25°C° 1.6 mm 1 mps 742 mmHg 86%
    03:00 +25°C° 1.6 mm 1 mps 742 mmHg 87%
    04:00 +24°C° 1.6 mm 2 mps 742 mmHg 88%
    05:00 +24°C° 1.2 mm 2 mps 743 mmHg 88%
    06:00 +24°C° 1.2 mm 1 mps 743 mmHg 87%
    07:00 +24°C° 1.2 mm 1 mps 744 mmHg 86%
    08:00 +26°C° 0.9 mm 1 mps 744 mmHg 81%
    09:00 +28°C° 0.9 mm 1 mps 745 mmHg 75%
    10:00 +29°C° 0.9 mm 1 mps 745 mmHg 70%
    11:00 +30°C° 0.8 mm 1 mps 744 mmHg 70%
    12:00 +30°C° 0.8 mm 1 mps 743 mmHg 70%
    13:00 +30°C° 0.8 mm 2 mps 743 mmHg 70%
    14:00 +30°C° 0.5 mm 2 mps 742 mmHg 73%
    15:00 +29°C° 0.5 mm 2 mps 742 mmHg 77%
    16:00 +28°C° 0.5 mm 2 mps 742 mmHg 80%
    17:00 +27°C° 0.4 mm 1 mps 742 mmHg 83%
    18:00 +27°C° 0.4 mm 1 mps 743 mmHg 86%
    19:00 +26°C° 0.4 mm 1 mps 743 mmHg 90%
    20:00 +26°C° 0.5 mm 1 mps 743 mmHg 88%
    21:00 +25°C° 0.5 mm 1 mps 744 mmHg 87%
    22:00 +25°C° 0.5 mm 1 mps 744 mmHg 86%
    23:00 +25°C° 0.5 mm 1 mps 744 mmHg 84%

    25 September, Tuesday

    Time Temperature Precipitation Wind Pressure Humidity
    00:00 +25°C° 0.5 mm 1 mps 743 mmHg 83%
    01:00 +25°C° 0.5 mm 2 mps 743 mmHg 81%
    02:00 +25°C° 0.2 mm 1 mps 743 mmHg 80%
    03:00 +24°C° 0.2 mm 1 mps 743 mmHg 79%
    04:00 +24°C° 0.2 mm 1 mps 743 mmHg 77%
    05:00 +25°C° 0.3 mm 1 mps 743 mmHg 76%
    06:00 +26°C° 0.3 mm 1 mps 744 mmHg 74%
    07:00 +26°C° 0.3 mm 1 mps 744 mmHg 73%
    08:00 +27°C° 0.6 mm 1 mps 744 mmHg 73%
    09:00 +27°C° 0.6 mm 1 mps 745 mmHg 74%
    10:00 +28°C° 0.6 mm 1 mps 745 mmHg 75%
    11:00 +29°C° 0.5 mm 1 mps 744 mmHg 71%
    12:00 +30°C° 0.5 mm 2 mps 743 mmHg 67%
    13:00 +31°C° 0.5 mm 2 mps 742 mmHg 63%
    14:00 +31°C° 0.2 mm 2 mps 742 mmHg 61%
    15:00 +32°C° 0.2 mm 1 mps 741 mmHg 60%
    16:00 +32°C° 0.2 mm 1 mps 741 mmHg 59%
    17:00 +30°C° 0.1 mm 1 mps 741 mmHg 62%
    18:00 +29°C° 0.1 mm 1 mps 742 mmHg 65%
    19:00 +27°C° 0.1 mm 1 mps 742 mmHg 68%
    20:00 +27°C° 0.1 mm 1 mps 742 mmHg 66%
    21:00 +27°C° 0.1 mm 1 mps 743 mmHg 63%
    22:00 +26°C° 0.1 mm 1 mps 743 mmHg 61%
    23:00 +26°C° 0.2 mm 1 mps 743 mmHg 61%
    Show more